Tracking 31027 objects as of 19-Jul-2025
HD Live streaming from Space Station
objects crossing your sky now

FR 1

Track FR 1 now!
10-day predictions
FR 1 is classified as:


NORAD ID: 1814
Int'l Code: 1965-101A
Perigee: 661.7 km
Apogee: 669.3 km
Inclination: 75.9 °
Period: 97.9 minutes
Semi major axis: 7036 km
RCS: 0.5793 m2 (medium)
Launch date: December 6, 1965
Source: France (FR)
Launch site: AIR FORCE WESTERN TEST RANGE (AFWTR)
Your satellite tracking list
STARLINK-5403
Track 1 satellite(s)




NASA's NSSDC Master Catalog

Two Line Element Set (TLE):
1 01814U 65101A   25199.48682711  .00000637  00000-0  10693-3 0  9998
2 01814  75.8637 206.5492 0005419 223.6084 136.4669 14.70854996  7021
Source of the keplerian elements: AFSPC